Location: Mohawk View
(42.7837°N, 73.7885°W)
Time: 11:02:13
(UTC+00:00)

Cosmos 1992 Rocket - Pass Details

Date: 17 June 2021
Orbit: 758 x 766 km, 74.0° (Epoch: 26 July)

Event Time Altitude Azimuth Distance (km) Brightness Sun altitude
Exits shadow 03:32:55 46° 143° (SE) 1,012 4.2 -21.1°
Maximum altitude 03:33:54 54° 105° (ESE) 927 4.2 -21.2°
Drops below altitude 10° 03:38:58 10° 29° (NNE) 2,306 7.0 -21.5°
Sets 03:41:24 0° 25° (NNE) 3,237 7.9 -21.6°
